Location: Sternwarte auf dem Internationalen Platz Vogelsang IP
(50.5721°N, 6.4398°E)
Time: 21:03:51
(UTC+01:00)

Transit 2A Rocket - Pass Details

Date: 15 December 2025
Orbit: 581 x 903 km, 66.7° (Epoch: 12 January)

Event Time Altitude Azimuth Distance (km) Brightness Sun altitude
Rises 15:16:55 0° 321° (NW) 3,531 8.3 7.4°
Reaches altitude 10° 15:19:42 10° 330° (NNW) 2,592 7.6 7.1°
Maximum altitude 15:25:12 35° 35° (NE) 1,415 6.0 6.6°
Drops below altitude 10° 15:30:33 10° 101° (E) 2,510 7.4 6.0°
Sets 15:33:12 0° 110° (ESE) 3,406 8.1 5.8°
